Location: Northern Prairie Star Party
(53.2167°N, 112.5333°W)
Time: 23:34:48
(UTC-07:00)

Amateur Radio Satellites - All Passes

Search period start: 26 November 2014 23:04
Search period end: 27 November 2014 23:04
Location: Northern Prairie Star Party, 53.2167°N, 112.5333°W

Satellite Date Start Highest point End Downlink Frequencies (MHz)
Time Altitude Azimuth
BUGSAT 1 26 Nov 23:05:08 23:08:46 29° 95° (E) 23:12:20 437.445
FUNcube-1 26 Nov 23:06:10 23:08:58 17° 271° (W) 23:11:47 145.935
RS-15 26 Nov 23:07:04 23:18:00 60° 29° (NNE) 23:29:20 29.354- 29.394
TIGRISAT 26 Nov 23:08:55 23:13:14 53° 101° (E) 23:17:38 435.000
CUBEBUG 1 26 Nov 23:10:01 23:14:22 52° 260° (W) 23:18:44 437.445
BEESAT 3 26 Nov 23:17:50 23:21:13 23° 339° (NNW) 23:24:38 437.485
UNISAT 6 26 Nov 23:23:06 23:27:32 72° 103° (ESE) 23:32:02 437.425
POPSAT HIP 1 26 Nov 23:24:12 23:28:21 53° 101° (E) 23:32:29 437.405
50 SAT 26 Nov 23:25:07 23:28:00 19° 269° (W) 23:30:54 437.505
BEESAT 2 26 Nov 23:34:22 23:37:39 22° 341° (NNW) 23:40:57 435.950
MaSat-1 26 Nov 23:36:53 23:39:05 38° 51° (NE) 23:41:17 437.345
HUMSAT D 26 Nov 23:44:48 23:46:17 12° 274° (W) 23:47:46 437.325/437.525
PCSat 26 Nov 23:47:47 23:51:47 20° 349° (N) 23:55:48 145.827
ANTELSAT 26 Nov 23:52:04 23:56:27 64° 289° (WNW) 00:00:56 437.575/2403.000
ISS 26 Nov 23:52:44 23:55:00 17° 145° (SE) 23:57:17 145.825
ITUPSAT 1 26 Nov 23:55:24 23:59:38 31° 61° (ENE) 00:03:53 437.325
CUSAT 1 26 Nov 23:55:43 23:59:59 88° 257° (WSW) 00:05:47 437.405
POLYITAN 1 26 Nov 23:58:24 00:02:39 74° 287° (WNW) 00:06:52 437.675
QB50P2 27 Nov 00:00:01 00:04:15 72° 288° (WNW) 00:08:28 145.880/145.840
DUCHIFAT 1 27 Nov 00:05:25 00:09:37 65° 289° (WNW) 00:13:47 145.980
SWISSCUBE 27 Nov 00:05:38 00:10:06 40° 64° (ENE) 00:14:36 437.505
AUBIESAT-1 27 Nov 00:10:07 00:14:22 71° 65° (ENE) 00:19:01 437.475
AIST 2 27 Nov 00:13:26 00:16:45 21° 344° (NNW) 00:20:06 435.215
ESTCUBE 1 27 Nov 00:14:50 00:17:37 16° 273° (W) 00:20:25 437.505/2401.250
M-CUBED/EXP-1 PRIME 27 Nov 00:16:05 00:20:21 85° 67° (ENE) 00:25:01 437.505
TISAT 1 27 Nov 00:17:17 00:21:17 38° 262° (W) 00:25:18 437.305
YUBILEINY 27 Nov 00:23:12 00:25:18 11° 62° (ENE) 00:27:24 435.215
NANOSAT C BR1 27 Nov 00:25:10 00:29:11 43° 293° (WNW) 00:33:11 145.865
DANDE 27 Nov 00:26:14 00:30:18 58° 260° (W) 00:35:47 436.750
SPROUT 27 Nov 00:30:28 00:34:25 34° 264° (W) 00:38:23 437.525
QB50P1 27 Nov 00:35:20 00:39:12 35° 295° (WNW) 00:43:03 145.935-145.965
BEESAT 27 Nov 00:36:08 00:40:53 65° 70° (ENE) 00:45:40 436.000
BUGSAT 1 27 Nov 00:40:34 00:44:21 36° 295° (WNW) 00:48:04 437.445
Oscar 19 27 Nov 00:45:00 00:47:51 15° 85° (E) 00:50:42 437.125/150
TIGRISAT 27 Nov 00:46:13 00:49:46 24° 299° (WNW) 00:53:22 435.000
KKS-1 27 Nov 00:47:08 00:50:38 23° 59° (ENE) 00:54:09 437.445
BEESAT 3 27 Nov 00:58:00 01:00:48 17° 2° (N) 01:03:35 437.485
POPSAT HIP 1 27 Nov 01:00:41 01:04:00 23° 300° (WNW) 01:07:19 437.405
UNISAT 6 27 Nov 01:00:47 01:03:55 19° 302° (WNW) 01:07:05 437.425
BEESAT 2 27 Nov 01:14:28 01:17:19 17° 5° (N) 01:20:11 435.950
RS-15 27 Nov 01:19:51 01:30:49 67° 237° (WSW) 01:42:15 29.354- 29.394
ISS 27 Nov 01:27:57 01:31:09 50° 164° (SSE) 01:34:22 145.825
ANTELSAT 27 Nov 01:30:45 01:32:30 12° 309° (NW) 01:34:15 437.575/2403.000
ITUPSAT 1 27 Nov 01:32:46 01:37:24 46° 261° (W) 01:42:05 437.325
PCSat 27 Nov 01:32:58 01:37:07 22° 15° (NNE) 01:41:15 145.827
POLYITAN 1 27 Nov 01:36:00 01:37:54 13° 307° (NW) 01:39:49 437.675
QB50P2 27 Nov 01:37:39 01:39:28 13° 308° (NW) 01:41:16 145.880/145.840
STARS 27 Nov 01:39:47 01:43:58 44° 67° (ENE) 01:48:09 437.465
ITAMSAT 1 27 Nov 01:40:03 01:43:31 18° 88° (E) 01:46:58 435.822/435.867
CUSAT 1 27 Nov 01:40:26 01:42:53 14° 271° (W) 01:45:39 437.405
DUCHIFAT 1 27 Nov 01:43:18 01:44:43 12° 309° (NW) 01:46:08 145.980
SWISSCUBE 27 Nov 01:43:39 01:48:03 35° 264° (W) 01:52:29 437.505
AUBIESAT-1 27 Nov 01:46:55 01:49:56 18° 266° (W) 01:53:06 437.475
M-CUBED/EXP-1 PRIME 27 Nov 01:53:35 01:56:07 15° 268° (W) 01:58:47 437.505
AIST 2 27 Nov 01:53:45 01:56:48 18° 8° (N) 01:59:51 435.215
YUBILEINY 27 Nov 02:11:30 02:19:42 47° 87° (E) 02:27:54 435.215
BEESAT 27 Nov 02:15:32 02:19:11 21° 270° (W) 02:22:52 436.000
Gurwin Techsat 1B 27 Nov 02:18:08 02:22:20 23° 90° (E) 02:26:31 435.225
KKS-1 27 Nov 02:22:36 02:26:59 57° 259° (WSW) 02:31:24 437.445
Oscar 19 27 Nov 02:22:50 02:28:02 81° 105° (ESE) 02:33:14 437.125/150
BEESAT 3 27 Nov 02:36:39 02:40:17 27° 26° (NNE) 02:43:54 437.485
SO-50 27 Nov 02:48:15 02:48:21 10° 107° (ESE) 02:48:28 436.795
BEESAT 2 27 Nov 02:53:02 02:56:49 30° 29° (NNE) 03:00:35 435.950
ISS 27 Nov 03:04:22 03:07:39 66° 184° (S) 03:10:56 145.825
AO-7 27 Nov 03:13:29 03:19:02 19° 84° (E) 03:24:32 29.400- 29.500
PCSat 27 Nov 03:16:34 03:21:50 47° 39° (NE) 03:27:04 145.827
STARS 27 Nov 03:16:54 03:20:39 27° 266° (W) 03:24:24 437.465
ITAMSAT 1 27 Nov 03:18:30 03:23:43 85° 288° (WNW) 03:28:54 435.822/435.867
HORYU 2 27 Nov 03:25:27 03:29:36 36° 97° (E) 03:33:45 437.375
AIST 2 27 Nov 03:32:36 03:36:36 34° 31° (NNE) 03:40:33 435.215
RS-15 27 Nov 03:33:32 03:41:04 21° 261° (W) 03:48:48 29.354- 29.394
MOZHAYETS 4 27 Nov 03:35:33 03:39:41 34° 64° (ENE) 03:43:52
Gurwin Techsat 1B 27 Nov 03:57:31 04:02:49 68° 290° (WNW) 04:08:05 435.225
Oscar 19 27 Nov 04:03:01 04:06:51 22° 305° (NW) 04:10:42 437.125/150
YUBILEINY 27 Nov 04:07:52 04:16:27 55° 291° (WNW) 04:25:03 435.215
BEESAT 3 27 Nov 04:14:46 04:19:00 84° 228° (SW) 04:23:11 437.485
PRISM 27 Nov 04:22:29 04:25:48 23° 59° (ENE) 04:29:07 437.425
SO-50 27 Nov 04:23:25 04:27:53 56° 127° (SE) 04:32:30 436.795
BEESAT 2 27 Nov 04:31:15 04:35:28 69° 230° (SW) 04:39:38 435.950
ISS 27 Nov 04:41:02 04:44:03 33° 204° (SSW) 04:47:03 145.825
STRAND 1 27 Nov 04:43:32 04:47:16 21° 54° (NE) 04:51:01 437.568
ITAMSAT 1 27 Nov 04:59:01 05:02:32 19° 308° (NW) 05:06:03 435.822/435.867
PCSat 27 Nov 05:00:08 05:05:19 46° 241° (WSW) 05:10:28 145.827
HORYU 2 27 Nov 05:02:12 05:06:18 35° 296° (WNW) 05:10:22 437.375
AO-7 27 Nov 05:05:02 05:13:25 70° 107° (ESE) 05:21:46 29.400- 29.500
AIST 2 27 Nov 05:11:13 05:15:29 58° 232° (SW) 05:19:41 435.215
JAS-2 27 Nov 05:12:18 05:19:05 40° 93° (E) 05:25:07 435.910
MOZHAYETS 4 27 Nov 05:12:34 05:16:53 39° 263° (W) 05:21:15
CUBESAT XI-V 27 Nov 05:20:25 05:24:36 32° 63° (ENE) 05:28:48 437.345
O/OREOS (USA 219) 27 Nov 05:33:06 05:36:34 22° 104° (ESE) 05:40:02 437.305
Gurwin Techsat 1B 27 Nov 05:38:47 05:41:55 16° 311° (NW) 05:45:02 435.225
BEESAT 3 27 Nov 05:54:14 05:56:36 15° 247° (WSW) 05:58:57 437.485
PRISM 27 Nov 05:56:54 06:01:03 55° 259° (WSW) 06:05:16 437.425
SO-50 27 Nov 06:04:18 06:08:39 39° 329° (NNW) 06:13:09 436.795
Cubesat XI-IV 27 Nov 06:07:31 06:12:06 28° 93° (E) 06:16:38 437.490
YUBILEINY 27 Nov 06:10:13 06:15:45 18° 318° (NW) 06:21:19 435.215
BEESAT 2 27 Nov 06:11:29 06:12:59 12° 250° (WSW) 06:14:30 435.950
GONETS M04 27 Nov 06:12:10 06:15:27 13° 64° (ENE) 06:18:44
AIST 1 27 Nov 06:13:25 06:17:37 41° 72° (ENE) 06:21:45
STRAND 1 27 Nov 06:20:44 06:25:54 85° 254° (WSW) 06:31:05 437.568
CUTE-I 27 Nov 06:48:13 06:53:29 55° 101° (E) 06:58:41 437.470
JAS-2 27 Nov 06:57:17 07:04:25 55° 296° (WNW) 07:10:44 435.910
CUBESAT XI-V 27 Nov 06:57:28 07:01:58 42° 263° (W) 07:06:29 437.345
AO-7 27 Nov 06:58:15 07:05:49 40° 309° (NW) 07:13:24 29.400- 29.500
O/OREOS (USA 219) 27 Nov 07:11:11 07:15:37 59° 304° (NW) 07:20:04 437.305
SO-50 27 Nov 07:46:44 07:50:24 22° 353° (N) 07:54:08 436.795
Cubesat XI-IV 27 Nov 07:47:18 07:52:32 56° 293° (WNW) 07:57:43 437.490
AIST 1 27 Nov 07:51:26 07:55:07 26° 272° (W) 07:58:45
HO-68 27 Nov 07:57:51 08:02:17 17° 83° (E) 08:06:42 435.675
GONETS M04 27 Nov 08:01:38 08:10:00 51° 88° (E) 08:18:26
STRAND 1 27 Nov 08:02:52 08:05:53 16° 274° (W) 08:08:54 437.568
CUTE-I 27 Nov 08:28:43 08:33:20 31° 301° (WNW) 08:37:55 437.470
CUTE 1.7 + AOD 2 27 Nov 08:34:20 08:37:24 19° 90° (E) 08:40:28 437.475
TIGRISAT 27 Nov 08:39:31 08:42:10 16° 55° (NE) 08:44:49 435.000
JAS-2 27 Nov 08:43:21 08:47:53 18° 320° (NW) 08:52:10 435.910
POPSAT HIP 1 27 Nov 08:49:45 08:52:12 15° 55° (NE) 08:54:40 437.405
AO-7 27 Nov 08:51:40 08:56:30 17° 335° (NNW) 09:01:20 29.400- 29.500
UNISAT 6 27 Nov 08:53:18 08:56:30 21° 59° (ENE) 08:59:43 437.425
O/OREOS (USA 219) 27 Nov 08:53:22 08:56:00 15° 327° (NNW) 08:58:39 437.305
GOMX 1 27 Nov 09:05:02 09:08:29 25° 93° (E) 09:11:58 467.674
SEEDS 27 Nov 09:05:04 09:08:53 31° 95° (E) 09:12:41 437.485
UKube-1 27 Nov 09:06:56 09:08:46 12° 86° (E) 09:10:36 .
Oscar 11 27 Nov 09:16:10 09:19:11 18° 89° (E) 09:22:11 145.826/435.025
DELFI C3 27 Nov 09:17:44 09:20:15 16° 88° (E) 09:22:47 145.870
AAUSAT CUBESAT 2 27 Nov 09:18:57 09:22:47 32° 95° (E) 09:26:36 437.432
ANTELSAT 27 Nov 09:21:23 09:25:15 34° 65° (ENE) 09:29:09 437.575/2403.000
POLYITAN 1 27 Nov 09:22:47 09:26:23 27° 62° (ENE) 09:29:59 437.675
QB50P2 27 Nov 09:24:10 09:27:48 28° 62° (ENE) 09:31:26 145.880/145.840
SO-50 27 Nov 09:28:22 09:32:23 26° 18° (NNE) 09:36:28 436.795
Cubesat XI-IV 27 Nov 09:29:01 09:31:35 14° 314° (NW) 09:34:10 437.490
DUCHIFAT 1 27 Nov 09:29:07 09:32:50 30° 63° (ENE) 09:36:33 145.980
CANX-2 27 Nov 09:34:57 09:39:15 70° 103° (ESE) 09:43:33 2200.000
COMPASS 1 27 Nov 09:35:07 09:39:17 50° 100° (E) 09:43:25 437.405
BRITE-PL 27 Nov 09:40:42 09:44:52 69° 103° (ESE) 09:49:02 437.365/2234.400
UWE-3 27 Nov 09:41:06 09:43:56 17° 89° (E) 09:46:47 435.000/436.395/437.385
DX 1 27 Nov 09:42:38 09:46:19 26° 94° (E) 09:49:58 434.975-435.025
CUBEBUG 2 27 Nov 09:43:42 09:46:53 20° 91° (E) 09:50:06 437.445
HO-68 27 Nov 09:44:09 09:51:21 71° 105° (ESE) 09:58:30 435.675
HUMSAT D 27 Nov 09:46:41 09:47:31 11° 85° (E) 09:48:21 437.325/437.525
NANOSAT C BR1 27 Nov 09:48:23 09:52:26 44° 67° (ENE) 09:56:28 145.865
DOVE 4 27 Nov 09:53:45 09:57:51 54° 101° (E) 10:02:01 437.250
QB50P1 27 Nov 09:58:22 10:02:31 54° 69° (ENE) 10:06:41 145.935-145.965
GONETS M04 27 Nov 09:58:24 10:06:56 51° 292° (WNW) 10:15:33
BUGSAT 1 27 Nov 10:01:14 10:05:20 49° 69° (ENE) 10:09:24 437.445
CUTE 1.7 + AOD 2 27 Nov 10:09:30 10:13:45 62° 289° (WNW) 10:18:00 437.475
ZACube-1 27 Nov 10:12:19 10:15:59 28° 94° (E) 10:19:42 437.345
TIGRISAT 27 Nov 10:14:08 10:18:24 83° 255° (WSW) 10:22:42 435.000
YUBILEINY 27 Nov 10:17:44 10:20:30 12° 29° (NNE) 10:23:16 435.215
CINEMA 3 27 Nov 10:18:40 10:22:50 60° 101° (ESE) 10:27:06 145.822/145.860
VELOX 1 27 Nov 10:19:06 10:22:34 22° 92° (E) 10:26:01 145.980
POPSAT HIP 1 27 Nov 10:23:16 10:27:33 90° 52° (NE) 10:31:49 437.405
ESTCUBE 1 27 Nov 10:24:25 10:26:01 12° 84° (E) 10:27:36 437.505/2401.250
UNISAT 6 27 Nov 10:28:45 10:32:58 60° 258° (WSW) 10:37:14 437.425
SEEDS 27 Nov 10:40:51 10:44:48 37° 294° (WNW) 10:48:44 437.485
UKube-1 27 Nov 10:41:16 10:45:39 85° 106° (ESE) 10:50:00 .
GOMX 1 27 Nov 10:42:55 10:46:51 42° 292° (WNW) 10:50:49 467.674
AO-7 27 Nov 10:43:20 10:46:02 12° 2° (N) 10:48:44 29.400- 29.500
AISAT 27 Nov 10:45:55 10:50:04 38° 97° (E) 10:54:10 437.250
FUNcube-1 27 Nov 10:46:41 10:50:51 57° 101° (E) 10:55:05 145.935
Oscar 11 27 Nov 10:51:28 10:55:48 66° 289° (WNW) 11:00:08 145.826/435.025
DELFI C3 27 Nov 10:51:55 10:56:04 72° 288° (WNW) 11:00:11 145.870
CUBEBUG 1 27 Nov 10:53:40 10:56:52 20° 90° (E) 11:00:03 437.445
AAUSAT CUBESAT 2 27 Nov 10:54:39 10:58:31 35° 294° (WNW) 11:02:22 437.432
POLYITAN 1 27 Nov 10:58:09 11:02:12 43° 261° (W) 11:06:17 437.675
ANTELSAT 27 Nov 10:58:15 11:02:07 33° 264° (W) 11:06:00 437.575/2403.000
50 SAT 27 Nov 10:58:29 11:02:21 40° 98° (E) 11:06:13 437.505
QB50P2 27 Nov 10:59:33 11:03:36 42° 262° (W) 11:07:40 145.880/145.840
DUCHIFAT 1 27 Nov 11:04:40 11:08:39 38° 263° (W) 11:12:38 145.980
SO-50 27 Nov 11:08:57 11:13:46 64° 40° (NE) 11:18:39 436.795
COMPASS 1 27 Nov 11:11:22 11:14:47 24° 299° (WNW) 11:18:13 437.405
CANX-2 27 Nov 11:11:46 11:14:46 19° 302° (WNW) 11:17:47 2200.000
UWE-3 27 Nov 11:16:44 11:20:56 67° 288° (WNW) 11:25:13 435.000/436.395/437.385
DX 1 27 Nov 11:18:36 11:22:46 45° 293° (WNW) 11:26:54 434.975-435.025
CUBEBUG 2 27 Nov 11:19:48 11:23:56 55° 290° (WNW) 11:28:09 437.445
HUMSAT D 27 Nov 11:19:54 11:24:05 77° 104° (ESE) 11:28:17 437.325/437.525
BRITE-PL 27 Nov 11:20:14 11:23:00 17° 303° (WNW) 11:25:44 437.365/2234.400
NANOSAT C BR1 27 Nov 11:24:57 11:28:31 26° 267° (W) 11:32:05 145.865
ITAMSAT 1 27 Nov 11:28:25 11:30:18 12° 45° (NE) 11:32:11 435.822/435.867
DOVE 4 27 Nov 11:32:13 11:35:24 22° 300° (WNW) 11:38:37 437.250
HO-68 27 Nov 11:32:20 11:38:40 35° 307° (NW) 11:44:58 435.675
QB50P1 27 Nov 11:35:30 11:38:45 21° 269° (W) 11:42:01 145.935-145.965
BUGSAT 1 27 Nov 11:37:42 11:41:05 23° 267° (W) 11:44:28 437.445
CUTE 1.7 + AOD 2 27 Nov 11:47:33 11:48:53 11° 309° (NW) 11:50:12 437.475
ZACube-1 27 Nov 11:48:34 11:52:30 39° 293° (WNW) 11:56:30 437.345
TIGRISAT 27 Nov 11:54:29 11:55:55 11° 275° (W) 11:57:21 435.000
VELOX 1 27 Nov 11:55:09 11:59:30 55° 291° (WNW) 12:03:49 145.980
TISAT 1 27 Nov 11:56:29 11:59:50 22° 92° (E) 12:03:09 437.305
CINEMA 3 27 Nov 11:56:39 11:59:45 20° 301° (WNW) 12:02:53 145.822/145.860
ESTCUBE 1 27 Nov 11:59:09 12:03:44 76° 104° (ESE) 12:08:15 437.505/2401.250
GONETS M04 27 Nov 12:01:10 12:06:28 17° 320° (NW) 12:11:49
POPSAT HIP 1 27 Nov 12:02:10 12:04:07 13° 274° (W) 12:06:03 437.405
Oscar 19 27 Nov 12:07:21 12:12:04 39° 63° (ENE) 12:16:50 437.125/150
Gurwin Techsat 1B 27 Nov 12:08:29 12:11:23 15° 48° (NE) 12:14:17 435.225
SPROUT 27 Nov 12:11:01 12:14:43 28° 94° (E) 12:18:24 437.525
YUBILEINY 27 Nov 12:13:11 12:20:58 34° 59° (ENE) 12:28:40 435.215
UKube-1 27 Nov 12:18:31 12:21:17 17° 305° (NW) 12:24:01 .
AISAT 27 Nov 12:22:42 12:26:40 33° 297° (WNW) 12:30:36 437.250
FUNcube-1 27 Nov 12:23:43 12:26:55 22° 300° (WNW) 12:30:10 145.935
DELFI C3 27 Nov 12:29:01 12:30:39 12° 307° (NW) 12:32:18 145.870
CUBEBUG 1 27 Nov 12:29:20 12:33:40 61° 290° (WNW) 12:37:57 437.445
Oscar 11 27 Nov 12:29:29 12:31:12 12° 308° (NW) 12:32:55 145.826/435.025
AO-7 27 Nov 12:30:21 12:35:40 19° 30° (NNE) 12:41:00 29.400- 29.500
BEESAT 27 Nov 12:32:58 12:34:01 11° 83° (E) 12:35:04 436.000
50 SAT 27 Nov 12:34:08 12:37:33 27° 297° (WNW) 12:40:58 437.505
SO-50 27 Nov 12:49:53 12:54:06 30° 241° (WSW) 12:58:20 436.795
UWE-3 27 Nov 12:55:18 12:56:46 12° 308° (NW) 12:58:15 435.000/436.395/437.385
HORYU 2 27 Nov 12:56:21 12:58:29 13° 51° (NE) 13:00:37 437.375
HUMSAT D 27 Nov 12:56:46 12:59:26 17° 303° (WNW) 13:02:06 437.325/437.525
ITAMSAT 1 27 Nov 13:03:41 13:08:41 49° 66° (ENE) 13:13:43 435.822/435.867
CUSAT 1 27 Nov 13:16:34 13:19:07 57° 100° (E) 13:21:51 437.405
HO-68 27 Nov 13:21:34 13:24:24 13° 331° (NNW) 13:27:14 435.675
AUBIESAT-1 27 Nov 13:22:04 13:26:12 26° 98° (E) 13:30:15 437.475
ITUPSAT 1 27 Nov 13:27:17 13:31:32 30° 94° (E) 13:35:45 437.325
M-CUBED/EXP-1 PRIME 27 Nov 13:28:19 13:32:44 31° 100° (E) 13:37:04 437.505
TISAT 1 27 Nov 13:31:52 13:35:58 50° 291° (WNW) 13:40:01 437.305
VELOX 1 27 Nov 13:34:06 13:35:11 11° 311° (NW) 13:36:16 145.980
ESTCUBE 1 27 Nov 13:36:54 13:40:07 19° 304° (NW) 13:43:20 437.505/2401.250
SWISSCUBE 27 Nov 13:37:26 13:41:58 39° 97° (E) 13:46:27 437.505
Gurwin Techsat 1B 27 Nov 13:45:10 13:50:25 63° 69° (ENE) 13:55:41 435.225
Oscar 19 27 Nov 13:46:40 13:51:27 39° 263° (W) 13:56:16 437.125/150
SPROUT 27 Nov 13:46:56 13:50:58 41° 293° (WNW) 13:54:59 437.525
JAS-2 27 Nov 13:49:25 13:53:24 15° 36° (NE) 13:57:20 435.910
DANDE 27 Nov 13:49:50 13:52:25 56° 286° (WNW) 13:55:05 436.750
O/OREOS (USA 219) 27 Nov 13:56:42 14:00:26 25° 43° (NE) 14:04:09 437.305
CUBEBUG 1 27 Nov 14:07:45 14:09:12 12° 310° (NW) 14:10:39 437.445
BEESAT 27 Nov 14:08:02 14:12:50 66° 103° (ESE) 14:17:36 436.000
KKS-1 27 Nov 14:08:26 14:11:33 19° 90° (E) 14:14:40 437.445
YUBILEINY 27 Nov 14:09:58 14:18:42 76° 264° (W) 14:27:20 435.215
AO-7 27 Nov 14:18:48 14:26:36 48° 54° (NE) 14:34:27 29.400- 29.500
HORYU 2 27 Nov 14:30:00 14:34:25 71° 71° (ENE) 14:38:52 437.375
ITAMSAT 1 27 Nov 14:43:46 14:48:24 32° 265° (W) 14:53:03 435.822/435.867
MaSat-1 27 Nov 14:45:35 14:47:09 14° 113° (ESE) 14:48:38 437.345
AUBIESAT-1 27 Nov 14:56:38 15:01:29 59° 297° (WNW) 15:06:16 437.475
STARS 27 Nov 15:00:02 15:04:08 37° 97° (E) 15:08:13 437.465
M-CUBED/EXP-1 PRIME 27 Nov 15:03:10 15:07:56 50° 299° (WNW) 15:12:40 437.505
ITUPSAT 1 27 Nov 15:05:01 15:09:37 46° 294° (WNW) 15:14:11 437.325
SWISSCUBE 27 Nov 15:15:26 15:19:49 36° 297° (WNW) 15:24:10 437.505
Gurwin Techsat 1B 27 Nov 15:26:28 15:30:49 25° 269° (W) 15:35:11 435.225
JAS-2 27 Nov 15:29:24 15:36:34 41° 58° (ENE) 15:43:40 435.910
O/OREOS (USA 219) 27 Nov 15:35:48 15:40:15 64° 245° (WSW) 15:44:40 437.305
KKS-1 27 Nov 15:44:14 15:48:40 67° 289° (WNW) 15:53:04 437.445
BEESAT 27 Nov 15:46:33 15:50:18 23° 303° (WNW) 15:54:03 436.000
RS-15 27 Nov 15:51:04 16:01:00 43° 112° (ESE) 16:10:57 29.354- 29.394
Cubesat XI-IV 27 Nov 15:58:04 16:01:40 19° 51° (NE) 16:05:17 437.490
GONETS M04 27 Nov 16:07:45 16:11:22 13° 31° (NNE) 16:14:58
YUBILEINY 27 Nov 16:08:08 16:14:02 21° 288° (WNW) 16:19:55 435.215
HORYU 2 27 Nov 16:08:38 16:11:36 17° 271° (W) 16:14:36 437.375
AO-7 27 Nov 16:11:10 16:19:19 58° 257° (WSW) 16:27:32 29.400- 29.500
MaSat-1 27 Nov 16:18:50 16:21:25 38° 309° (NW) 16:23:50 437.345
PHONESAT 2.4 27 Nov 16:22:30 16:23:45 11° 174° (S) 16:25:00 2401.200-2431.200
VERMONT LUNAR 27 Nov 16:26:10 16:27:22 11° 179° (S) 16:28:34 437.305
AUBIESAT-1 27 Nov 16:32:52 16:35:36 15° 317° (NW) 16:38:20 437.475
STARS 27 Nov 16:36:40 16:40:36 33° 297° (WNW) 16:44:32 437.465
CUTE-I 27 Nov 16:37:29 16:42:10 32° 59° (ENE) 16:46:51 437.470
M-CUBED/EXP-1 PRIME 27 Nov 16:39:42 16:42:00 13° 319° (NW) 16:44:17 437.505
ITUPSAT 1 27 Nov 16:45:51 16:46:25 10° 315° (NW) 16:46:58 437.325
HO-68 27 Nov 16:51:43 16:53:29 11° 25° (NNE) 16:55:14 435.675
MOZHAYETS 4 27 Nov 17:01:20 17:05:36 33° 95° (E) 17:09:49
JAS-2 27 Nov 17:13:32 17:21:16 65° 259° (W) 17:29:03 435.910
KKS-1 27 Nov 17:22:37 17:24:32 13° 309° (NW) 17:26:26 437.445
PRISM 27 Nov 17:35:11 17:37:38 15° 88° (E) 17:40:04 437.425
Cubesat XI-IV 27 Nov 17:35:40 17:41:02 80° 71° (ENE) 17:46:26 437.490
PHONESAT 2.4 27 Nov 18:01:12 18:01:31 10° 192° (SSW) 18:01:50 2401.200-2431.200
RS-15 27 Nov 18:01:41 18:12:38 78° 319° (NW) 18:23:46 29.354- 29.394
GONETS M04 27 Nov 18:03:35 18:11:40 37° 61° (ENE) 18:19:40
AO-7 27 Nov 18:10:00 18:14:05 14° 280° (W) 18:18:12 29.400- 29.500
CUTE-I 27 Nov 18:16:49 18:22:03 53° 260° (W) 18:27:19 437.470
STRAND 1 27 Nov 18:25:42 18:29:33 21° 90° (E) 18:33:21 437.568
HO-68 27 Nov 18:33:02 18:38:59 29° 49° (NE) 18:44:56 435.675
MOZHAYETS 4 27 Nov 18:38:33 18:42:54 39° 295° (WNW) 18:47:13
GOMX 1 27 Nov 18:45:26 18:46:17 11° 51° (NE) 18:47:08 467.674
CUBESAT XI-V 27 Nov 18:48:02 18:52:15 32° 94° (E) 18:56:26 437.345
AIST 1 27 Nov 18:50:49 18:53:51 19° 84° (E) 18:56:54
COMPASS 1 27 Nov 19:00:01 19:01:59 13° 54° (NE) 19:03:57 437.405
CANX-2 27 Nov 19:00:07 19:02:56 18° 57° (ENE) 19:05:46 2200.000
JAS-2 27 Nov 19:02:56 19:07:46 17° 281° (W) 19:12:38 435.910
PRISM 27 Nov 19:09:28 19:13:45 78° 287° (WNW) 19:17:59 437.425
Cubesat XI-IV 27 Nov 19:17:56 19:21:47 20° 272° (W) 19:25:39 437.490
BRITE-PL 27 Nov 19:20:18 19:24:10 26° 62° (ENE) 19:27:49 437.365/2234.400
DOVE 4 27 Nov 19:29:53 19:32:52 18° 58° (ENE) 19:35:48 437.250
CUTE 1.7 + AOD 2 27 Nov 19:33:25 19:37:05 30° 64° (ENE) 19:40:48 437.475
PCSat 27 Nov 19:47:34 19:52:42 45° 119° (ESE) 19:57:52 145.827
CINEMA 3 27 Nov 19:51:30 19:54:24 18° 58° (ENE) 19:57:16 145.822/145.860
BEESAT 3 27 Nov 19:53:54 19:57:15 24° 118° (ESE) 20:00:39 437.485
GONETS M04 27 Nov 20:00:28 20:09:15 70° 265° (W) 20:17:57
SEEDS 27 Nov 20:03:29 20:07:31 48° 69° (ENE) 20:11:36 437.485
STRAND 1 27 Nov 20:04:10 20:09:17 72° 289° (WNW) 20:14:21 437.568
UKube-1 27 Nov 20:07:22 20:10:56 25° 60° (ENE) 20:14:31 .
BEESAT 2 27 Nov 20:10:36 20:14:14 30° 121° (ESE) 20:17:57 435.950
DELFI C3 27 Nov 20:12:29 20:15:45 24° 61° (ENE) 20:19:03 145.870
FUNcube-1 27 Nov 20:14:49 20:17:18 16° 56° (NE) 20:19:47 145.935
RS-15 27 Nov 20:16:14 20:26:43 48° 350° (N) 20:37:29 29.354- 29.394
AISAT 27 Nov 20:16:19 20:18:37 14° 52° (NE) 20:20:55 437.250
AAUSAT CUBESAT 2 27 Nov 20:16:19 20:20:21 49° 69° (ENE) 20:24:25 437.432
Oscar 11 27 Nov 20:16:52 20:20:39 31° 63° (ENE) 20:24:27 145.826/435.025
HO-68 27 Nov 20:18:47 20:26:01 87° 251° (WSW) 20:33:16 435.675
GOMX 1 27 Nov 20:19:08 20:23:38 57° 71° (ENE) 20:27:54 467.674
50 SAT 27 Nov 20:22:12 20:22:49 10° 51° (NE) 20:23:26 437.505
CUBESAT XI-V 27 Nov 20:25:25 20:29:48 40° 294° (WNW) 20:34:09 437.345
AIST 1 27 Nov 20:26:42 20:31:05 63° 284° (WNW) 20:35:30
COMPASS 1 27 Nov 20:32:52 20:37:02 78° 73° (ENE) 20:41:16 437.405
CANX-2 27 Nov 20:34:11 20:38:24 75° 257° (WSW) 20:42:41 2200.000
DX 1 27 Nov 20:44:06 20:48:21 51° 68° (ENE) 20:52:36 434.975-435.025
HUMSAT D 27 Nov 20:44:14 20:47:05 19° 58° (ENE) 20:49:57 437.325/437.525
UWE-3 27 Nov 20:44:32 20:48:11 30° 64° (ENE) 20:51:50 435.000/436.395/437.385
PRISM 27 Nov 20:46:29 20:48:38 14° 307° (NW) 20:50:46 437.425
CUBEBUG 2 27 Nov 20:48:16 20:52:07 36° 66° (ENE) 20:55:56 437.445
AIST 2 27 Nov 20:53:30 20:57:29 39° 123° (ESE) 21:01:31 435.215
BRITE-PL 27 Nov 20:57:48 21:02:31 52° 260° (W) 21:06:54 437.365/2234.400
DOVE 4 27 Nov 21:05:49 21:10:17 72° 257° (WSW) 21:14:33 437.250
CUTE 1.7 + AOD 2 27 Nov 21:09:00 21:12:57 38° 263° (W) 21:16:57 437.475
ZACube-1 27 Nov 21:14:39 21:18:40 48° 69° (ENE) 21:22:41 437.345
VELOX 1 27 Nov 21:22:49 21:27:02 43° 66° (ENE) 21:31:16 145.980
CINEMA 3 27 Nov 21:26:57 21:31:14 70° 257° (WSW) 21:35:26 145.822/145.860
ESTCUBE 1 27 Nov 21:29:23 21:33:02 24° 59° (ENE) 21:36:43 437.505/2401.250
PCSat 27 Nov 21:30:56 21:36:10 47° 320° (NW) 21:41:26 145.827
BEESAT 3 27 Nov 21:31:03 21:35:11 62° 318° (NW) 21:39:22 437.485
SEEDS 27 Nov 21:40:14 21:43:37 23° 268° (W) 21:47:01 437.485
UKube-1 27 Nov 21:42:38 21:46:53 50° 259° (W) 21:51:09 .
STRAND 1 27 Nov 21:44:38 21:47:40 16° 310° (NW) 21:50:42 437.568
DELFI C3 27 Nov 21:46:53 21:50:50 48° 261° (W) 21:54:50 145.870
BEESAT 2 27 Nov 21:48:18 21:52:23 52° 321° (NW) 21:56:32 435.950
FUNcube-1 27 Nov 21:48:58 21:53:09 83° 256° (WSW) 21:57:20 145.935
AISAT 27 Nov 21:50:05 21:54:33 75° 72° (ENE) 21:59:02 437.250
Oscar 11 27 Nov 21:52:43 21:56:45 38° 263° (W) 22:00:50 145.826/435.025
AAUSAT CUBESAT 2 27 Nov 21:53:01 21:56:18 22° 268° (W) 21:59:38 437.432
50 SAT 27 Nov 21:53:22 21:57:21 61° 71° (ENE) 22:01:20 437.505
CUBEBUG 1 27 Nov 21:55:46 21:59:49 36° 65° (ENE) 22:03:53 437.445
GOMX 1 27 Nov 21:58:38 22:02:06 21° 268° (W) 22:05:28 467.674
GONETS M04 27 Nov 21:58:49 22:04:26 19° 289° (WNW) 22:10:03
TIGRISAT 27 Nov 22:00:58 22:03:17 14° 87° (E) 22:05:37 435.000
CUSAT 1 27 Nov 22:04:36 22:07:21 16° 62° (ENE) 22:10:34 437.405
AIST 1 27 Nov 22:08:39 22:09:45 11° 306° (NW) 22:10:51
HO-68 27 Nov 22:09:23 22:14:45 22° 273° (W) 22:20:10 435.675
COMPASS 1 27 Nov 22:11:00 22:13:21 15° 273° (W) 22:15:43 437.405
CANX-2 27 Nov 22:14:30 22:15:09 10° 276° (W) 22:15:49 2200.000
UNISAT 6 27 Nov 22:15:09 22:18:20 19° 90° (E) 22:21:33 437.425
HUMSAT D 27 Nov 22:18:25 22:22:31 66° 258° (WSW) 22:26:38 437.325/437.525
UWE-3 27 Nov 22:20:49 22:24:42 36° 263° (W) 22:28:35 435.000/436.395/437.385
DX 1 27 Nov 22:21:20 22:24:52 24° 267° (W) 22:28:25 434.975-435.025
CUBEBUG 2 27 Nov 22:25:12 22:28:55 30° 265° (W) 22:32:37 437.445
RS-15 27 Nov 22:30:49 22:41:37 55° 23° (NNE) 22:52:47 29.354- 29.394
AIST 2 27 Nov 22:32:01 22:36:08 44° 324° (NW) 22:40:18 435.215
POLYITAN 1 27 Nov 22:38:17 22:41:31 21° 91° (E) 22:44:43 437.675
DANDE 27 Nov 22:39:05 22:42:31 24° 67° (ENE) 22:46:48 436.750
QB50P2 27 Nov 22:39:25 22:42:42 21° 92° (E) 22:45:57 145.880/145.840
MaSat-1 27 Nov 22:42:57 22:44:24 15° 42° (NE) 22:45:51 437.345
ANTELSAT 27 Nov 22:43:38 22:47:39 33° 96° (E) 22:51:45 437.575/2403.000
DUCHIFAT 1 27 Nov 22:44:00 22:47:23 23° 92° (E) 22:50:45 145.980
AUBIESAT-1 27 Nov 22:44:13 22:47:05 17° 45° (NE) 22:50:04 437.475
DOVE 4 27 Nov 22:48:45 22:48:50 10° 276° (W) 22:48:56 437.250
M-CUBED/EXP-1 PRIME 27 Nov 22:50:32 22:53:42 20° 47° (NE) 22:57:02 437.505
ZACube-1 27 Nov 22:52:01 22:55:19 22° 268° (W) 22:58:38 437.345
TISAT 1 27 Nov 22:55:00 22:58:57 38° 66° (ENE) 23:02:55 437.305
